TimeCDT,TemperatureF,Dew PointF,Humidity,Sea Level PressureIn,VisibilityMPH,Wind Direction,Wind SpeedMPH,Gust SpeedMPH,PrecipitationIn,Events,Conditions,WindDirDegrees,DateUTC
12:15 AM,41.0,39.2,93,30.18,10.0,Calm,Calm,-,N/A,,Clear,0,2012-10-30 05:15:00
12:35 AM,41.0,39.2,93,30.18,10.0,Calm,Calm,-,N/A,,Clear,0,2012-10-30 05:35:00
12:55 AM,39.2,37.4,93,30.17,10.0,Calm,Calm,-,N/A,,Clear,0,2012-10-30 05:55:00
1:15 AM,39.2,37.4,93,30.17,10.0,Calm,Calm,-,N/A,,Clear,0,2012-10-30 06:15:00
1:35 AM,39.2,37.4,93,30.17,10.0,Calm,Calm,-,N/A,,Clear,0,2012-10-30 06:35:00
1:55 AM,39.2,37.4,93,30.17,10.0,Calm,Calm,-,N/A,,Clear,0,2012-10-30 06:55:00
2:15 AM,39.2,37.4,93,30.16,10.0,Calm,Calm,-,N/A,,Clear,0,2012-10-30 07:15:00
2:55 AM,37.4,35.6,93,30.16,10.0,Calm,Calm,-,N/A,,Clear,0,2012-10-30 07:55:00
3:15 AM,37.4,37.4,100,30.16,10.0,Calm,Calm,-,N/A,,Clear,0,2012-10-30 08:15:00
3:35 AM,39.2,37.4,93,30.16,10.0,Calm,Calm,-,N/A,,Clear,0,2012-10-30 08:35:00
3:55 AM,37.4,37.4,100,30.15,10.0,Calm,Calm,-,N/A,,Clear,0,2012-10-30 08:55:00
4:35 AM,39.2,37.4,93,30.15,10.0,Calm,Calm,-,N/A,,Clear,0,2012-10-30 09:35:00
4:55 AM,39.2,37.4,93,30.15,10.0,Calm,Calm,-,N/A,,Clear,0,2012-10-30 09:55:00
5:15 AM,37.4,35.6,93,30.15,10.0,Calm,Calm,-,N/A,,Clear,0,2012-10-30 10:15:00
5:35 AM,37.4,35.6,93,30.16,10.0,Calm,Calm,-,N/A,,Clear,0,2012-10-30 10:35:00
5:55 AM,37.4,35.6,93,30.15,10.0,Calm,Calm,-,N/A,,Clear,0,2012-10-30 10:55:00
6:15 AM,37.4,35.6,93,30.15,10.0,Calm,Calm,-,N/A,,Clear,0,2012-10-30 11:15:00
6:35 AM,37.4,35.6,93,30.15,10.0,Calm,Calm,-,N/A,,Clear,0,2012-10-30 11:35:00
6:55 AM,37.4,35.6,93,30.16,10.0,Calm,Calm,-,N/A,,Clear,0,2012-10-30 11:55:00
7:15 AM,35.6,35.6,100,30.16,10.0,Calm,Calm,-,N/A,,Clear,0,2012-10-30 12:15:00
7:35 AM,37.4,35.6,93,30.17,10.0,Calm,Calm,-,N/A,,Clear,0,2012-10-30 12:35:00
7:55 AM,37.4,35.6,93,30.17,8.0,Calm,Calm,-,N/A,,Clear,0,2012-10-30 12:55:00
8:15 AM,39.2,39.2,100,30.17,10.0,Calm,Calm,-,N/A,,Clear,0,2012-10-30 13:15:00
8:35 AM,44.6,42.8,93,30.17,9.0,Calm,Calm,-,N/A,,Clear,0,2012-10-30 13:35:00
8:55 AM,48.2,44.6,87,30.17,10.0,Calm,Calm,-,N/A,,Clear,0,2012-10-30 13:55:00
9:15 AM,51.8,42.8,71,30.16,10.0,Calm,Calm,-,N/A,,Clear,0,2012-10-30 14:15:00
9:35 AM,53.6,42.8,67,30.16,10.0,Calm,Calm,-,N/A,,Clear,0,2012-10-30 14:35:00
9:55 AM,55.4,41.0,58,30.16,10.0,South,3.5,-,N/A,,Clear,190,2012-10-30 14:55:00
10:15 AM,57.2,42.8,59,30.16,10.0,Calm,Calm,-,N/A,,Clear,0,2012-10-30 15:15:00
10:35 AM,59.0,42.8,55,30.17,10.0,Calm,Calm,-,N/A,,Clear,0,2012-10-30 15:35:00
10:55 AM,60.8,44.6,55,30.17,10.0,Calm,Calm,-,N/A,,Clear,0,2012-10-30 15:55:00
11:15 AM,62.6,44.6,52,30.16,10.0,Calm,Calm,-,N/A,,Clear,0,2012-10-30 16:15:00
11:35 AM,64.4,44.6,49,30.15,10.0,SSW,6.9,-,N/A,,Clear,210,2012-10-30 16:35:00
11:55 AM,66.2,44.6,46,30.14,10.0,SSW,4.6,-,N/A,,Clear,210,2012-10-30 16:55:00
12:15 PM,66.2,44.6,46,30.14,10.0,Calm,Calm,-,N/A,,Clear,0,2012-10-30 17:15:00
12:35 PM,68.0,42.8,40,30.12,10.0,SW,3.5,-,N/A,,Clear,220,2012-10-30 17:35:00
12:55 PM,69.8,42.8,38,30.11,10.0,SW,4.6,-,N/A,,Clear,220,2012-10-30 17:55:00
1:15 PM,69.8,41.0,35,30.10,10.0,South,4.6,-,N/A,,Clear,190,2012-10-30 18:15:00
1:35 PM,69.8,41.0,35,30.09,10.0,Calm,Calm,-,N/A,,Clear,0,2012-10-30 18:35:00
1:55 PM,69.8,42.8,38,30.08,10.0,Calm,Calm,-,N/A,,Clear,0,2012-10-30 18:55:00
2:15 PM,69.8,42.8,38,30.07,10.0,SW,6.9,-,N/A,,Clear,220,2012-10-30 19:15:00
2:35 PM,71.6,42.8,35,30.06,10.0,Calm,Calm,-,N/A,,Clear,0,2012-10-30 19:35:00
2:55 PM,71.6,41.0,33,30.06,10.0,Calm,Calm,-,N/A,,Clear,0,2012-10-30 19:55:00
3:15 PM,71.6,42.8,35,30.05,10.0,Calm,Calm,-,N/A,,Clear,0,2012-10-30 20:15:00
3:55 PM,71.6,41.0,33,30.04,10.0,Calm,Calm,-,N/A,,Clear,0,2012-10-30 20:55:00
4:35 PM,71.6,39.2,31,30.03,10.0,Calm,Calm,-,N/A,,Clear,0,2012-10-30 21:35:00
4:55 PM,71.6,41.0,33,30.02,9.0,Calm,Calm,-,N/A,,Clear,0,2012-10-30 21:55:00
5:35 PM,69.8,42.8,38,30.02,9.0,Calm,Calm,-,N/A,,Clear,0,2012-10-30 22:35:00
5:55 PM,69.8,46.4,43,30.02,10.0,Calm,Calm,-,N/A,,Clear,0,2012-10-30 22:55:00
6:15 PM,62.6,48.2,59,30.02,10.0,Calm,Calm,-,N/A,,Clear,0,2012-10-30 23:15:00
6:35 PM,59.0,48.2,67,30.03,10.0,Calm,Calm,-,N/A,,Clear,0,2012-10-30 23:35:00
6:55 PM,55.4,48.2,77,30.03,10.0,Calm,Calm,-,N/A,,Clear,0,2012-10-30 23:55:00
7:15 PM,55.4,48.2,77,30.04,10.0,Calm,Calm,-,N/A,,Clear,0,2012-10-31 00:15:00
7:35 PM,53.6,48.2,82,30.04,10.0,Calm,Calm,-,N/A,,Clear,0,2012-10-31 00:35:00
7:55 PM,51.8,48.2,88,30.04,10.0,Calm,Calm,-,N/A,,Clear,0,2012-10-31 00:55:00
8:15 PM,51.8,48.2,88,30.04,10.0,Calm,Calm,-,N/A,,Clear,0,2012-10-31 01:15:00
8:35 PM,51.8,46.4,82,30.04,10.0,Calm,Calm,-,N/A,,Clear,0,2012-10-31 01:35:00
8:55 PM,51.8,46.4,82,30.05,10.0,Calm,Calm,-,N/A,,Clear,0,2012-10-31 01:55:00
9:15 PM,50.0,46.4,87,30.05,10.0,Calm,Calm,-,N/A,,Clear,0,2012-10-31 02:15:00
9:55 PM,48.2,46.4,93,30.05,10.0,Calm,Calm,-,N/A,,Clear,0,2012-10-31 02:55:00
10:15 PM,50.0,46.4,87,30.05,10.0,Calm,Calm,-,N/A,,Clear,0,2012-10-31 03:15:00
10:35 PM,48.2,46.4,93,30.04,10.0,Calm,Calm,-,N/A,,Clear,0,2012-10-31 03:35:00
10:55 PM,50.0,46.4,87,30.04,10.0,Calm,Calm,-,N/A,,Clear,0,2012-10-31 03:55:00
11:15 PM,50.0,46.4,87,30.04,10.0,Calm,Calm,-,N/A,,Clear,0,2012-10-31 04:15:00
11:35 PM,48.2,46.4,93,30.04,10.0,Calm,Calm,-,N/A,,Clear,0,2012-10-31 04:35:00
11:55 PM,51.8,46.4,82,30.03,10.0,Calm,Calm,-,N/A,,Clear,0,2012-10-31 04:55:00